Flag for United Kingdom Weather past 2 weeks in Canterbury, England, United Kingdom

Now
34 °F

Chilly.


Feels Like: 26 °F
Forecast: 38 / 47 °F
Wind: 12 mph from Southwest

Location: Manston

Current Time: Mar 4, 2015 at 5:03:51 AM

Latest Report: Mar 4, 2015 at 4:00 AM


Visibility: 17 mi

Pressure: 30.20 "Hg

Humidity: 85%

Dew point: 30 °F

Location of CanterburyLocation

Historic Weather in Canterbury — Graph

°F

Canterbury temperature yesterday

Maximum temperature yesterday: 49 °F (at 1:00 PM)
Minimum temperature yesterday: 36 °F (at 3:00 AM)
Average temperature yesterday: 41 °F

Past Weeks' High & Low Weather Summary

 TemperatureHumidityPressure
High53 °F (Mar 1, 1:00 PM)98% (Feb 20, 8:00 AM)30.76 "Hg (Feb 20, 8:00 AM)
Low30 °F (Feb 22, 6:00 AM)45% (Mar 2, 5:00 PM)29.26 "Hg (Feb 23, 12:00 AM)
Average42 °F82%29.89 "Hg
* Reported Feb 17 4:00 AM — Mar 4 3:00 AM, Canterbury, Weather by CustomWeather, © 2015

Note: Actual official high and low records may vary slightly from our data, if they occured in-between our weather recording intervals... More about our weather records

Advertising

Canterbury weather history for previous 24 hours

 ConditionsComfort  
Time TempWeatherWind HumidityBarometerVisibility
3:00 AM
Wed, Mar 4
35 °FChilly.14 mph82%30.20 "Hg19 mi
2:00 AM36 °FChilly.15 mph79%30.19 "Hg19 mi
1:00 AM36 °FChilly.16 mph76%30.17 "Hg25 mi
12:00 AM36 °FChilly.14 mph74%30.16 "Hg25 mi
11:00 PM
Tue, Mar 3
37 °FChilly.15 mph71%30.14 "Hg28 mi
10:00 PM37 °FChilly.15 mph69%30.13 "Hg25 mi
9:00 PM38 °FChilly.15 mph66%30.11 "Hg28 mi
8:00 PM38 °FChilly.12 mph67%30.10 "Hg28 mi
7:00 PM40 °FChilly.13 mph64%30.08 "Hg28 mi
6:00 PM41 °FQuite cool.9 mph68%30.04 "Hg31 mi
5:00 PM43 °FQuite cool.14 mph64%30.02 "Hg31 mi
4:00 PM46 °FCool.17 mph54%30.01 "Hg25 mi
3:00 PM46 °FCool.21 mph54%29.99 "Hg25 mi
2:00 PM47 °FCool.18 mph58%29.97 "Hg19 mi
1:00 PM49 °FCool.18 mph59%29.96 "Hg25 mi
12:00 PM47 °FCool.22 mph67%29.96 "Hg25 mi
11:00 AM46 °FCool.22 mph76%29.94 "Hg18 mi
10:00 AM45 °FQuite cool.17 mph87%29.94 "Hg17 mi
9:00 AM42 °FQuite cool.13 mph92%29.94 "Hg28 mi
8:00 AM41 °FLots of rain. Cloudy.14 mph93%29.94 "Hg6 mi
7:00 AM39 °FChilly.12 mph94%29.94 "Hg19 mi
6:00 AM40 °FDrizzle. Overcast.14 mph92%29.96 "Hg2 mi
5:00 AM38 °FChilly.10 mph87%29.97 "Hg11 mi
Weather by CustomWeather, © 2015

See weather overviewHow to use our weather pages